Location: Unspecified
(20.0000°S, 0.0000°E)
Time: 14:19:46
(UTC+00:00)

NOAA 19 - Visible Passes

Search period start: 17 July 2019 00:00
Search period end: 27 July 2019 00:00
Orbit: 842 x 861 km, 99.2° (Epoch: 16 July)

Date Brightness Start Highest point End Pass type
(mag) Time Alt. Az. Time Alt. Az. Time Alt. Az.
17 Jul 5.1 04:52:41 10° N 04:58:11 70° WNW 05:00:55 31° SSW visible
18 Jul 5.1 04:41:01 10° NNE 04:46:33 87° ESE 04:49:10 33° SSW visible
19 Jul 5.5 04:29:27 10° NNE 04:34:55 66° ESE 04:37:24 33° S visible
20 Jul 6.0 04:18:01 10° NNE 04:23:19 49° ESE 04:25:39 30° SSE visible
20 Jul 6.9 06:01:28 10° NW 06:03:58 13° W 06:06:30 10° WSW visible
20 Jul 8.1 18:35:10 10° SW 18:36:54 11° WSW 18:38:39 10° W visible
21 Jul 6.5 04:06:42 10° NE 04:11:42 36° ESE 04:13:55 26° SSE visible
21 Jul 6.6 05:48:35 10° NW 05:52:16 18° W 05:55:56 10° SW visible
21 Jul 7.8 18:22:10 10° SW 18:25:22 16° WSW 18:28:34 10° WNW visible
22 Jul 7.0 03:55:33 10° NE 04:00:07 27° ESE 04:02:10 22° SE visible
22 Jul 6.2 05:36:10 10° NNW 05:40:35 25° W 05:44:11 13° SW visible
22 Jul 7.7 18:09:46 10° SSW 18:13:49 21° WSW 18:17:52 10° WNW visible
23 Jul 7.4 03:44:35 10° ENE 03:48:33 21° ESE 03:50:26 17° SE visible
23 Jul 5.9 05:24:00 10° NNW 05:28:53 33° W 05:32:27 17° SW visible
23 Jul 7.3 17:57:37 10° SSW 18:02:15 28° WSW 18:06:52 10° NW visible
24 Jul 7.7 03:33:55 10° ENE 03:37:00 15° ESE 03:38:42 13° SE visible
24 Jul 5.5 05:12:00 10° N 05:17:13 44° W 05:20:43 20° SW visible
25 Jul 8.0 03:24:01 10° E 03:25:28 11° ESE 03:26:55 10° SE visible
25 Jul 5.2 05:00:08 10° N 05:05:33 60° WNW 05:09:00 23° SSW visible
26 Jul 5.1 04:48:24 10° N 04:53:54 81° WNW 04:57:17 25° SSW visible
